Hourly Data Report for October 16, 2017

All times are specified in Local Standard Time (LST). Add 1 hour to adjust for Daylight Saving Time where and when it is observed.

PANGNIRTUNG
NUNAVUT

66°08'36.300" N
65°42'40.500" W
22.60 m
2403049
71826
WXP

Download Data

Hourly Data (October 2017)
Hourly Data Report for October 16, 2017
Temp Definition
°C
Dew Point Temp Definition
°C
Rel Hum Definition
%
Wind Dir Definition
10's deg

Wind Spd Definition
km/h
Visibility Definition
km
Stn Press Definition
kPa
Hmdx Definition


Wind Chill Definition


Weather Definition


TIME
00:00 -4.7 -10.9 62 14 16   99.67   -10 LegendNANA
01:00 -3.4 -11.1 56 12 12   99.67   -8 LegendNANA
02:00 -4.6 -11.8 57 15 11   99.68   -9 LegendNANA
03:00 -5.2 -12.3 58 12 13   99.69   -10 LegendNANA
04:00 -5.6 -12.2 60 13 10   99.69   -10 LegendNANA
05:00 -6.1 -12.4 61 12 8   99.71   -10 LegendNANA
06:00 -6.5 -12.7 61 10 4   99.73   -8 LegendNANA
07:00 -7.6 -13.2 64 13 5   99.76   -10 LegendNANA
08:00 -5.5 -12.6 58 14 6   99.77   -8 LegendNANA
09:00 -6.1 -12.8 59 13 7   99.75   -9 LegendNANA
10:00 -5.8 -13.0 57 12 6   99.74   -9 LegendNANA
11:00 -6.0 -12.7 59 0 1   99.73   -6 LegendNANA
12:00 -4.3 -12.0 55   0   99.73     LegendNANA
13:00 -3.9 -10.4 60 7 6   99.74   -7 LegendNANA
14:00 -4.2 -9.2 68 9 1   99.76   -5 LegendNANA
15:00 -4.2 -9.3 68 4 1   99.76   -5 LegendNANA
16:00 -4.3 -9.1 69 29 1   99.77   -5 LegendNANA
17:00 -4.0 -9.3 66 0 1   99.78   -4 LegendNANA
18:00 -4.2 -9.0 69 14 5   99.78   -6 LegendNANA
19:00 -4.2 -9.2 68   0   99.78     LegendNANA
20:00 -3.6 -9.5 64 0 1   99.78   -4 LegendNANA
21:00 -3.8 -9.1 67 4 1   99.76   -4 LegendNANA
22:00 -3.7 -9.2 66 13 1   99.76   -4 LegendNANA
23:00 -3.3 -9.2 64 0 1   99.75   -4 LegendNANA

Notes on Data Quality.

Legend

  • E = Estimated
  • M = Missing
  • NA = Not Available
  • ‡ = Partner data that is not subject to review by the National Climate Archives
Date modified: